Weather Roundup
Issued by NWS Chicago, IL

Home | Current Version | Previous Version | Graphics & Text | Print | Product List | Glossary On
Versions: 1 2 3 4 5 6 7 8 9 10 11 12 13 14 15 16 17 18 19 20 21 22 23 24 25 26 27 28 29 30 31 32 33 34 35 36 37 38 39 40 41 42 43 44 45 46 47 48 49 50
000
NZUS59 KLOT 011502
HRRLOT

CHICAGO AREA WEATHER ROUNDUP
NATIONAL WEATHER SERVICE CHICAGO/ROMEOVILLE IL
1000 AM CDT SAT AUG 01 2015

NOTE: "FAIR" INDICATES FEW OR NO CLOUDS BELOW 12,000 FEET WITH NO
SIGNIFICANT WEATHER AND/OR OBSTRUCTIONS TO VISIBILITY.

* THESE STATIONS ARE NOT UNDER NWS QUALITY CONTROL. THEY ALSO MAY NOT
  REPORT WEATHER SUCH AS PRECIPITATION OR FOG.

ILZ005-006-012>014-019>023-011600-
NORTHEAST ILLINOIS

CITY           SKY/WX    TMP DP  RH WIND       PRES   REMARKS
OHARE          MOSUNNY   78  57  48 NW12      29.98F
MIDWAY         MOSUNNY   81  55  40 W8        29.98F HX  81
AURORA         MOSUNNY   77  62  59 W6        30.00F
WAUKEGAN       MOSUNNY   76  59  55 VRB5      29.97F
DUPAGE AIRPORT MOSUNNY   77  58  51 W8        29.99F
WHEELING       MOSUNNY   80  56  43 NW9       29.99F HX  80
NORTHERLY IS     N/A     79  53  40 NW7         N/A
$$

WIZ051-052-058>065-066-070>072-011600-
SOUTHEAST WISCONSIN

CITY           SKY/WX    TMP DP  RH WIND       PRES   REMARKS
MILWAUKEE      MOSUNNY   77  53  43 NW9       29.96F
KENOSHA*       SUNNY     76  59  55 W8        29.98S
RACINE*        MOSUNNY   78  55  44 W8        29.98F
WAUKESHA       MOSUNNY   72  54  53 W10G17    29.99S
$$

INZ001>003-010>013-019-020-011600-
NORTHWEST INDIANA

CITY           SKY/WX    TMP DP  RH WIND       PRES   REMARKS
GARY*          NOT AVBL
MICHIGAN CITY* NOT AVBL
RENSSELAER*    NOT AVBL
$$

LMZ740>746-011600-
SOUTHERN LAKE MICHIGAN

STATION/POSITION TIME  SKY/WX   TEMP WIND        PRES    VSBY
                                AIR  DIR/SP/G
                 (UTC)          (F)  (DEG/KT/KT) (MB)    (MI)
HARRISON CRIB    1400            74  270/  9/ 10   N/A
BURNHAM HARBOR   1500            80  280/  7/  8   N/A
CALUMET HARBOR   1400            77  240/  3/  6   N/A
BURNS HARBOR     1400            74  270/  9/ 11 1016.3S
MICHIGAN CITY    1400            72  230/ 11/ 12   N/A
$$

ABBREVIATIONS USED IN REMARKS
   TC - TEMPERATURE IN CELSIUS
  WCI - WIND CHILL INDEX
   HX - HEAT INDEX
  VSB - VISIBILITY
$$



USA.gov is the U.S. government's official web portal to all federal, state and local government web resources and services.